This is the latest recevied weather packets stored in our database for station/object N1ORT. If no packets are shown the sender has not sent any weather packets the latest 10 day(s).
| Time | Temp. | Humidity | Pressure | Rain* | Wind** | Luminosity | Snow |
|---|---|---|---|---|---|---|---|
| 1778028650 | 22.22° C | 49% | 1006.4 hPa | 0 mm | - | 0 W/m² | - |
| 1778028347 | 21.67° C | 49% | 1006.2 hPa | 0 mm | - | 0 W/m² | - |
| 1778028044 | 22.22° C | 47% | 1006.2 hPa | 0 mm | - | 0 W/m² | - |
| 1778027739 | 22.22° C | 47% | 1006.1 hPa | 0 mm | - | 0 W/m² | - |
| 1778027436 | 22.22° C | 47% | 1005.8 hPa | 0 mm | - | 0 W/m² | - |
| 1778027127 | 22.78° C | 46% | 1005.7 hPa | 0 mm | - | 0 W/m² | - |
| 1778026822 | 22.78° C | 47% | 1005.7 hPa | 0 mm | - | 0 W/m² | - |
| 1778026519 | 22.78° C | 46% | 1005.5 hPa | 0 mm | - | 0 W/m² | - |
| 1778026216 | 22.78° C | 46% | 1005.5 hPa | 0 mm | - | 0 W/m² | - |
| 1778025914 | 22.78° C | 46% | 1005.3 hPa | 0 mm | - | 0 W/m² | - |
| 1778025611 | 22.78° C | 46% | 1005.1 hPa | 0 mm | - | 1 W/m² | - |
| 1778025309 | 23.33° C | 45% | 1005.2 hPa | 0 mm | - | 1 W/m² | - |
| 1778025005 | 23.33° C | 44% | 1005.3 hPa | 0 mm | - | 2 W/m² | - |
| 1778024703 | 23.33° C | 44% | 1005 hPa | 0 mm | - | 4 W/m² | - |
| 1778024399 | 23.33° C | 45% | 1005.1 hPa | 0 mm | - | 7 W/m² | - |
| 1778024097 | 23.89° C | 44% | 1004.8 hPa | 0 mm | - | 11 W/m² | - |
| 1778023794 | 23.89° C | 44% | 1004.7 hPa | 0 mm | - | 14 W/m² | - |
| 1778023492 | 23.89° C | 44% | 1004.5 hPa | 0 mm | - | 16 W/m² | - |
| 1778023189 | 23.89° C | 44% | 1004.6 hPa | 0 mm | - | 18 W/m² | - |
| 1778022886 | 23.89° C | 44% | 1004.5 hPa | 0 mm | - | 20 W/m² | - |
| 1778022584 | 24.44° C | 43% | 1004.4 hPa | 0 mm | - | 23 W/m² | - |
| 1778022282 | 24.44° C | 43% | 1004.3 hPa | 0 mm | - | 27 W/m² | - |
| 1778021978 | 24.44° C | 42% | 1004.1 hPa | 0 mm | - | 32 W/m² | - |
| 1778021675 | 25° C | 42% | 1004.2 hPa | 0 mm | - | 38 W/m² | - |
| 1778021371 | 25° C | 41% | 1004.1 hPa | 0 mm | - | 48 W/m² | - |
* Rain latest hour (hover to see other rain measurements)
** Current wind speed in m/s (hover to see current wind gust speed)